Location: ???? ??
(36.0534°N, 43.5630°E)
Time: 03:40:39
(UTC+00:00)

H-2A R/B - Pass Details

Date: 18 September 2019
Orbit: 734 x 836 km, 98.3° (Epoch: 17 October)

Event Time Altitude Azimuth Distance (km) Brightness Sun altitude
Exits shadow 15:43:06 - 86° (E) 2,356 3.9 -7.6°
Reaches altitude 10° 15:43:56 10° 77° (ENE) 2,251 3.8 -7.8°
Maximum altitude 15:45:11 11° 62° (ENE) 2,192 3.9 -8.0°
Drops below altitude 10° 15:46:27 10° 47° (NE) 2,263 4.1 -8.3°
Sets 15:50:40 0° 12° (NNE) 3,214 5.2 -9.1°
